Time,TemperatureF,DewpointF,PressureIn,WindDirection,WindDirectionDegrees,WindSpeedMPH,WindSpeedGustMPH,Humidity,HourlyPrecipIn,Conditions,Clouds,dailyrainin,SoftwareType,DateUTC
2013-02-17 00:01:00,33.2,23.4,30.25,NW,317,2.0,4.0,67,0.00,,,0.00,WeatherTracker,2013-02-17 06:01:00,
2013-02-17 00:06:00,33.1,23.4,30.25,NW,317,1.0,5.0,67,0.00,,,0.00,WeatherTracker,2013-02-17 06:06:00,
2013-02-17 00:11:00,33.0,23.3,30.25,NW,317,1.0,5.0,67,0.00,,,0.00,WeatherTracker,2013-02-17 06:11:00,
2013-02-17 00:16:00,33.0,23.3,30.26,NW,317,1.0,5.0,67,0.00,,,0.00,WeatherTracker,2013-02-17 06:16:00,
2013-02-17 00:21:00,32.9,23.2,30.26,NW,317,1.0,5.0,67,0.00,,,0.00,WeatherTracker,2013-02-17 06:21:00,
2013-02-17 00:27:00,32.9,23.5,30.26,NW,317,3.0,4.0,68,0.00,,,0.00,WeatherTracker,2013-02-17 06:27:00,
2013-02-17 00:32:00,32.8,23.4,30.26,NW,317,2.0,4.0,68,0.00,,,0.00,WeatherTracker,2013-02-17 06:32:00,
2013-02-17 00:37:00,32.7,23.0,30.26,NW,315,4.0,6.0,67,0.00,,,0.00,WeatherTracker,2013-02-17 06:37:00,
2013-02-17 00:42:00,32.8,23.4,30.26,NW,315,2.0,6.0,68,0.00,,,0.00,WeatherTracker,2013-02-17 06:42:00,
2013-02-17 00:47:00,32.8,23.4,30.26,NW,316,3.0,6.0,68,0.00,,,0.00,WeatherTracker,2013-02-17 06:47:00,
2013-02-17 00:52:00,32.8,23.4,30.26,NW,316,3.0,5.0,68,0.00,,,0.00,WeatherTracker,2013-02-17 06:52:00,
2013-02-17 00:57:00,32.8,23.4,30.26,NW,316,3.0,7.0,68,0.00,,,0.00,WeatherTracker,2013-02-17 06:57:00,
2013-02-17 01:02:00,32.7,23.3,30.26,NW,316,4.0,7.0,68,0.00,,,0.00,WeatherTracker,2013-02-17 07:02:00,
2013-02-17 01:07:00,32.6,22.9,30.26,NW,321,3.0,6.0,67,0.00,,,0.00,WeatherTracker,2013-02-17 07:07:00,
2013-02-17 01:12:00,32.6,22.9,30.26,NW,321,3.0,6.0,67,0.00,,,0.00,WeatherTracker,2013-02-17 07:12:00,
2013-02-17 01:17:00,32.5,23.1,30.26,NW,321,4.0,6.0,68,0.00,,,0.00,WeatherTracker,2013-02-17 07:17:00,
2013-02-17 01:22:00,32.3,22.9,30.25,NW,321,2.0,5.0,68,0.00,,,0.00,WeatherTracker,2013-02-17 07:22:00,
2013-02-17 01:27:00,32.1,23.1,30.25,NW,321,2.0,4.0,69,0.00,,,0.00,WeatherTracker,2013-02-17 07:27:00,
2013-02-17 01:32:00,31.9,22.9,30.25,NW,321,2.0,5.0,69,0.00,,,0.00,WeatherTracker,2013-02-17 07:32:00,
2013-02-17 01:37:00,31.7,23.1,30.25,NW,321,2.0,5.0,70,0.00,,,0.00,WeatherTracker,2013-02-17 07:37:00,
2013-02-17 01:42:00,31.5,22.9,30.25,NW,321,4.0,4.0,70,0.00,,,0.00,WeatherTracker,2013-02-17 07:42:00,
2013-02-17 01:47:00,31.3,23.0,30.25,NW,321,3.0,4.0,71,0.00,,,0.00,WeatherTracker,2013-02-17 07:47:00,
2013-02-17 01:52:00,31.1,22.8,30.25,NW,321,2.0,5.0,71,0.00,,,0.00,WeatherTracker,2013-02-17 07:52:00,
2013-02-17 01:57:00,30.8,22.9,30.25,NW,321,3.0,5.0,72,0.00,,,0.00,WeatherTracker,2013-02-17 07:57:00,
2013-02-17 02:02:00,30.7,22.8,30.25,NW,321,2.0,5.0,72,0.00,,,0.00,WeatherTracker,2013-02-17 08:02:00,
2013-02-17 02:07:00,30.6,23.0,30.25,NW,321,3.0,5.0,73,0.00,,,0.00,WeatherTracker,2013-02-17 08:07:00,
2013-02-17 02:12:00,30.6,23.0,30.25,NNW,348,3.0,6.0,73,0.00,,,0.00,WeatherTracker,2013-02-17 08:12:00,
2013-02-17 02:17:00,30.6,23.0,30.26,NNW,340,3.0,6.0,73,0.00,,,0.00,WeatherTracker,2013-02-17 08:17:00,
2013-02-17 02:23:00,30.7,23.1,30.26,NNW,347,4.0,7.0,73,0.00,,,0.00,WeatherTracker,2013-02-17 08:23:00,
2013-02-17 02:28:00,30.7,23.1,30.26,North,355,6.0,7.0,73,0.00,,,0.00,WeatherTracker,2013-02-17 08:28:00,
2013-02-17 02:33:00,30.7,23.1,30.25,NNW,348,5.0,7.0,73,0.00,,,0.00,WeatherTracker,2013-02-17 08:33:00,
2013-02-17 02:38:00,30.6,23.0,30.25,NW,325,4.0,7.0,73,0.00,,,0.00,WeatherTracker,2013-02-17 08:38:00,
2013-02-17 02:43:00,30.7,23.1,30.26,North,355,5.0,7.0,73,0.00,,,0.00,WeatherTracker,2013-02-17 08:43:00,
2013-02-17 02:48:00,30.7,23.1,30.26,NNW,346,4.0,7.0,73,0.00,,,0.00,WeatherTracker,2013-02-17 08:48:00,
2013-02-17 02:53:00,30.6,23.0,30.26,NNW,340,5.0,8.0,73,0.00,,,0.00,WeatherTracker,2013-02-17 08:53:00,
2013-02-17 02:58:00,30.6,23.3,30.25,NNW,348,5.0,8.0,74,0.00,,,0.00,WeatherTracker,2013-02-17 08:58:00,
2013-02-17 03:03:00,30.3,23.3,30.25,North,355,5.0,7.0,75,0.00,,,0.00,WeatherTracker,2013-02-17 09:03:00,
2013-02-17 03:08:00,30.2,23.2,30.25,North,355,4.0,7.0,75,0.00,,,0.00,WeatherTracker,2013-02-17 09:08:00,
2013-02-17 03:13:00,30.2,23.2,30.26,NNW,332,2.0,7.0,75,0.00,,,0.00,WeatherTracker,2013-02-17 09:13:00,
2013-02-17 03:18:00,30.2,23.2,30.26,NNW,332,1.0,5.0,75,0.00,,,0.00,WeatherTracker,2013-02-17 09:18:00,
2013-02-17 03:23:00,30.1,23.5,30.26,NNW,332,2.0,4.0,76,0.00,,,0.00,WeatherTracker,2013-02-17 09:23:00,
2013-02-17 03:28:00,30.0,23.4,30.26,NNW,332,0.0,4.0,76,0.00,,,0.00,WeatherTracker,2013-02-17 09:28:00,
2013-02-17 03:33:00,29.9,23.3,30.26,NNW,332,0.0,3.0,76,0.00,,,0.00,WeatherTracker,2013-02-17 09:33:00,
2013-02-17 03:38:00,29.7,23.1,30.26,NNW,332,0.0,1.0,76,0.00,,,0.00,WeatherTracker,2013-02-17 09:38:00,
2013-02-17 03:43:00,29.5,23.2,30.25,NNW,332,0.0,0.0,77,0.00,,,0.00,WeatherTracker,2013-02-17 09:43:00,
2013-02-17 03:48:00,29.2,23.2,30.26,NNW,332,0.0,0.0,78,0.00,,,0.00,WeatherTracker,2013-02-17 09:48:00,
2013-02-17 03:53:00,28.9,22.9,30.26,NNW,332,0.0,0.0,78,0.00,,,0.00,WeatherTracker,2013-02-17 09:53:00,
2013-02-17 03:58:00,28.7,23.3,30.26,NNW,332,0.0,0.0,80,0.00,,,0.00,WeatherTracker,2013-02-17 09:58:00,
2013-02-17 04:03:00,28.5,23.4,30.26,NNW,332,0.0,0.0,81,0.00,,,0.00,WeatherTracker,2013-02-17 10:03:00,
2013-02-17 04:08:00,28.3,23.2,30.26,NNW,332,0.0,0.0,81,0.00,,,0.00,WeatherTracker,2013-02-17 10:08:00,
2013-02-17 04:13:00,28.0,22.9,30.27,NNW,332,1.0,3.0,81,0.00,,,0.00,WeatherTracker,2013-02-17 10:13:00,
2013-02-17 04:18:00,27.8,22.7,30.27,NNW,332,1.0,3.0,81,0.00,,,0.00,WeatherTracker,2013-02-17 10:18:00,
2013-02-17 04:23:00,27.9,22.8,30.27,NNW,332,2.0,3.0,81,0.00,,,0.00,WeatherTracker,2013-02-17 10:23:00,
2013-02-17 04:28:00,28.1,23.3,30.27,NNW,332,2.0,3.0,82,0.00,,,0.00,WeatherTracker,2013-02-17 10:28:00,
2013-02-17 04:34:00,28.2,23.1,30.27,NNW,332,1.0,3.0,81,0.00,,,0.00,WeatherTracker,2013-02-17 10:34:00,
2013-02-17 04:39:00,28.3,23.2,30.28,NNW,332,2.0,3.0,81,0.00,,,0.00,WeatherTracker,2013-02-17 10:39:00,
2013-02-17 04:44:00,28.3,23.5,30.28,NNW,332,3.0,3.0,82,0.00,,,0.00,WeatherTracker,2013-02-17 10:44:00,
2013-02-17 04:49:00,28.3,23.5,30.29,NNW,332,1.0,3.0,82,0.00,,,0.00,WeatherTracker,2013-02-17 10:49:00,
2013-02-17 04:54:00,28.3,23.5,30.29,NNW,332,2.0,3.0,82,0.00,,,0.00,WeatherTracker,2013-02-17 10:54:00,
2013-02-17 04:59:00,28.3,23.5,30.29,NNW,332,1.0,3.0,82,0.00,,,0.00,WeatherTracker,2013-02-17 10:59:00,
2013-02-17 05:04:00,28.2,23.1,30.29,NNW,332,2.0,3.0,81,0.00,,,0.00,WeatherTracker,2013-02-17 11:04:00,
2013-02-17 05:09:00,28.2,23.1,30.30,NNW,332,0.0,2.0,81,0.00,,,0.00,WeatherTracker,2013-02-17 11:09:00,
2013-02-17 05:14:00,28.1,23.0,30.30,NNW,332,0.0,2.0,81,0.00,,,0.00,WeatherTracker,2013-02-17 11:14:00,
2013-02-17 05:19:00,28.1,23.0,30.30,NNW,332,0.0,2.0,81,0.00,,,0.00,WeatherTracker,2013-02-17 11:19:00,
2013-02-17 05:24:00,28.0,23.2,30.30,NNW,332,0.0,1.0,82,0.00,,,0.00,WeatherTracker,2013-02-17 11:24:00,
2013-02-17 05:29:00,27.9,23.1,30.30,NNW,332,0.0,1.0,82,0.00,,,0.00,WeatherTracker,2013-02-17 11:29:00,
2013-02-17 05:34:00,27.8,23.0,30.30,NNW,332,0.0,1.0,82,0.00,,,0.00,WeatherTracker,2013-02-17 11:34:00,
2013-02-17 05:39:00,27.7,23.2,30.31,NNW,332,0.0,0.0,83,0.00,,,0.00,WeatherTracker,2013-02-17 11:39:00,
2013-02-17 05:44:00,27.6,23.1,30.31,NNW,332,0.0,0.0,83,0.00,,,0.00,WeatherTracker,2013-02-17 11:44:00,
2013-02-17 05:49:00,27.5,23.3,30.31,NNW,332,0.0,2.0,84,0.00,,,0.00,WeatherTracker,2013-02-17 11:49:00,
2013-02-17 05:54:00,27.4,22.9,30.31,NNW,332,0.0,2.0,83,0.00,,,0.00,WeatherTracker,2013-02-17 11:54:00,
2013-02-17 05:59:00,27.2,22.7,30.31,NNW,332,0.0,2.0,83,0.00,,,0.00,WeatherTracker,2013-02-17 11:59:00,
2013-02-17 06:04:00,27.1,22.6,30.32,NNW,332,0.0,2.0,83,0.00,,,0.00,WeatherTracker,2013-02-17 12:04:00,
2013-02-17 06:09:00,27.1,22.6,30.31,NNW,332,0.0,0.0,83,0.00,,,0.00,WeatherTracker,2013-02-17 12:09:00,
2013-02-17 06:14:00,27.0,22.5,30.32,NNW,332,0.0,0.0,83,0.00,,,0.00,WeatherTracker,2013-02-17 12:14:00,
2013-02-17 06:19:00,26.9,22.4,30.32,NNW,332,0.0,0.0,83,0.00,,,0.00,WeatherTracker,2013-02-17 12:19:00,
2013-02-17 06:24:00,26.9,22.7,30.32,NNW,332,0.0,0.0,84,0.00,,,0.00,WeatherTracker,2013-02-17 12:24:00,
2013-02-17 06:30:00,26.7,22.5,30.32,NNW,332,0.0,0.0,84,0.00,,,0.00,WeatherTracker,2013-02-17 12:30:00,
2013-02-17 06:35:00,26.7,22.5,30.32,NNW,332,0.0,0.0,84,0.00,,,0.00,WeatherTracker,2013-02-17 12:35:00,
2013-02-17 06:40:00,26.6,22.4,30.32,NNW,332,0.0,0.0,84,0.00,,,0.00,WeatherTracker,2013-02-17 12:40:00,
2013-02-17 06:45:00,26.5,22.3,30.32,NNW,332,0.0,0.0,84,0.00,,,0.00,WeatherTracker,2013-02-17 12:45:00,
2013-02-17 06:50:00,26.4,22.2,30.32,NNW,332,0.0,0.0,84,0.00,,,0.00,WeatherTracker,2013-02-17 12:50:00,
2013-02-17 06:55:00,26.3,22.4,30.33,NNW,332,0.0,0.0,85,0.00,,,0.00,WeatherTracker,2013-02-17 12:55:00,
2013-02-17 07:00:00,27.2,23.9,30.33,NNW,332,0.0,0.0,87,0.00,,,0.00,WeatherTracker,2013-02-17 13:00:00,
2013-02-17 07:05:00,28.4,25.6,30.33,NNW,332,0.0,0.0,89,0.00,,,0.00,WeatherTracker,2013-02-17 13:05:00,
2013-02-17 07:10:00,29.3,26.2,30.33,NNW,332,0.0,2.0,88,0.00,,,0.00,WeatherTracker,2013-02-17 13:10:00,
2013-02-17 07:15:00,29.9,26.2,30.33,NNW,332,0.0,2.0,86,0.00,,,0.00,WeatherTracker,2013-02-17 13:15:00,
2013-02-17 07:20:00,30.6,26.4,30.33,NNW,332,1.0,3.0,84,0.00,,,0.00,WeatherTracker,2013-02-17 13:20:00,
2013-02-17 07:25:00,31.1,25.7,30.34,NNW,332,3.0,3.0,80,0.00,,,0.00,WeatherTracker,2013-02-17 13:25:00,
2013-02-17 07:30:00,31.6,25.5,30.34,NNW,332,2.0,4.0,78,0.00,,,0.00,WeatherTracker,2013-02-17 13:30:00,
2013-02-17 07:35:00,31.9,25.2,30.34,NNW,332,2.0,4.0,76,0.00,,,0.00,WeatherTracker,2013-02-17 13:35:00,
2013-02-17 07:40:00,32.4,25.7,30.34,NNW,332,1.0,4.0,76,0.00,,,0.00,WeatherTracker,2013-02-17 13:40:00,
2013-02-17 07:45:00,32.9,25.9,30.35,NNW,332,1.0,4.0,75,0.00,,,0.00,WeatherTracker,2013-02-17 13:45:00,
2013-02-17 07:50:00,33.3,25.6,30.35,North,5,1.0,6.0,73,0.00,,,0.00,WeatherTracker,2013-02-17 13:50:00,
2013-02-17 07:55:00,33.8,26.1,30.35,North,360,2.0,6.0,73,0.00,,,0.00,WeatherTracker,2013-02-17 13:55:00,
2013-02-17 08:00:00,34.1,25.7,30.35,North,10,4.0,6.0,71,0.00,,,0.00,WeatherTracker,2013-02-17 14:00:00,
2013-02-17 08:05:00,34.2,25.5,30.36,North,355,2.0,6.0,70,0.00,,,0.00,WeatherTracker,2013-02-17 14:05:00,
2013-02-17 08:11:00,34.7,26.3,30.36,NNW,333,4.0,6.0,71,0.00,,,0.00,WeatherTracker,2013-02-17 14:11:00,
2013-02-17 08:16:00,34.7,24.9,30.36,North,5,4.0,6.0,67,0.00,,,0.00,WeatherTracker,2013-02-17 14:16:00,
2013-02-17 08:21:00,35.1,25.6,30.36,NNW,341,3.0,7.0,68,0.00,,,0.00,WeatherTracker,2013-02-17 14:21:00,
2013-02-17 08:26:00,35.6,25.7,30.37,NW,306,3.0,7.0,67,0.00,,,0.00,WeatherTracker,2013-02-17 14:26:00,
2013-02-17 08:31:00,35.9,25.7,30.37,North,360,4.0,7.0,66,0.00,,,0.00,WeatherTracker,2013-02-17 14:31:00,
2013-02-17 08:36:00,36.1,25.1,30.37,North,360,1.0,7.0,64,0.00,,,0.00,WeatherTracker,2013-02-17 14:36:00,
2013-02-17 08:41:00,37.0,26.0,30.37,NNW,338,2.0,7.0,64,0.00,,,0.00,WeatherTracker,2013-02-17 14:41:00,
2013-02-17 08:46:00,37.2,26.2,30.37,NNE,22,4.0,6.0,64,0.00,,,0.00,WeatherTracker,2013-02-17 14:46:00,
2013-02-17 08:51:00,37.4,24.8,30.37,NE,43,3.0,7.0,60,0.00,,,0.00,WeatherTracker,2013-02-17 14:51:00,
2013-02-17 08:56:00,37.5,23.7,30.37,NE,53,3.0,7.0,57,0.00,,,0.00,WeatherTracker,2013-02-17 14:56:00,
2013-02-17 09:01:00,37.8,23.9,30.38,NE,44,4.0,6.0,57,0.00,,,0.00,WeatherTracker,2013-02-17 15:01:00,
2013-02-17 09:06:00,38.3,24.4,30.38,NE,49,1.0,6.0,57,0.00,,,0.00,WeatherTracker,2013-02-17 15:06:00,
2013-02-17 09:11:00,38.4,24.1,30.38,NNE,24,2.0,5.0,56,0.00,,,0.00,WeatherTracker,2013-02-17 15:11:00,
2013-02-17 09:16:00,38.9,23.7,30.38,NNE,15,0.0,6.0,54,0.00,,,0.00,WeatherTracker,2013-02-17 15:16:00,
2013-02-17 09:21:00,39.4,22.3,30.38,NNE,13,0.0,6.0,50,0.00,,,0.00,WeatherTracker,2013-02-17 15:21:00,
2013-02-17 09:26:00,40.1,23.0,30.38,NW,315,4.0,5.0,50,0.00,,,0.00,WeatherTracker,2013-02-17 15:26:00,
2013-02-17 09:31:00,40.3,21.7,30.38,NW,315,3.0,8.0,47,0.00,,,0.00,WeatherTracker,2013-02-17 15:31:00,
2013-02-17 09:36:00,40.4,22.8,30.38,North,350,6.0,8.0,49,0.00,,,0.00,WeatherTracker,2013-02-17 15:36:00,
2013-02-17 09:41:00,40.7,22.1,30.38,NW,319,3.0,7.0,47,0.00,,,0.00,WeatherTracker,2013-02-17 15:41:00,
2013-02-17 09:46:00,41.2,22.0,30.38,NW,321,5.0,11.0,46,0.00,,,0.00,WeatherTracker,2013-02-17 15:46:00,
2013-02-17 09:51:00,41.8,22.0,30.38,WNW,297,1.0,11.0,45,0.00,,,0.00,WeatherTracker,2013-02-17 15:51:00,
2013-02-17 09:57:00,42.0,21.1,30.38,East,85,4.0,11.0,43,0.00,,,0.00,WeatherTracker,2013-02-17 15:57:00,
2013-02-17 10:02:00,41.8,21.0,30.39,NE,38,1.0,7.0,43,0.00,,,0.00,WeatherTracker,2013-02-17 16:02:00,
2013-02-17 10:07:00,42.0,22.2,30.38,NE,38,2.0,7.0,45,0.00,,,0.00,WeatherTracker,2013-02-17 16:07:00,
2013-02-17 10:12:00,42.7,21.8,30.38,North,355,5.0,9.0,43,0.00,,,0.00,WeatherTracker,2013-02-17 16:12:00,
2013-02-17 10:17:00,42.9,17.8,30.39,NE,46,3.0,9.0,36,0.00,,,0.00,WeatherTracker,2013-02-17 16:17:00,
2013-02-17 10:22:00,42.4,17.4,30.39,SSE,151,2.0,6.0,36,0.00,,,0.00,WeatherTracker,2013-02-17 16:22:00,
2013-02-17 10:27:00,43.0,20.9,30.38,NNE,17,4.0,6.0,41,0.00,,,0.00,WeatherTracker,2013-02-17 16:27:00,
2013-02-17 10:32:00,43.2,19.3,30.39,NNE,19,4.0,9.0,38,0.00,,,0.00,WeatherTracker,2013-02-17 16:32:00,
2013-02-17 10:37:00,43.4,19.5,30.39,North,355,3.0,9.0,38,0.00,,,0.00,WeatherTracker,2013-02-17 16:37:00,
2013-02-17 10:42:00,43.2,18.7,30.38,NNE,26,0.0,7.0,37,0.00,,,0.00,WeatherTracker,2013-02-17 16:42:00,
2013-02-17 10:47:00,43.5,20.8,30.38,North,5,4.0,7.0,40,0.00,,,0.00,WeatherTracker,2013-02-17 16:47:00,
2013-02-17 10:52:00,43.7,19.8,30.38,NW,325,0.0,6.0,38,0.00,,,0.00,WeatherTracker,2013-02-17 16:52:00,
2013-02-17 10:57:00,45.2,21.1,30.38,NNW,348,4.0,6.0,38,0.00,,,0.00,WeatherTracker,2013-02-17 16:57:00,
2013-02-17 11:02:00,45.5,20.8,30.38,ENE,72,3.0,8.0,37,0.00,,,0.00,WeatherTracker,2013-02-17 17:02:00,
2013-02-17 11:07:00,45.3,21.2,30.37,NNE,12,2.0,8.0,38,0.00,,,0.00,WeatherTracker,2013-02-17 17:07:00,
2013-02-17 11:12:00,45.8,19.7,30.37,WNW,292,1.0,6.0,35,0.00,,,0.00,WeatherTracker,2013-02-17 17:12:00,
2013-02-17 11:17:00,46.2,19.4,30.37,NW,313,3.0,7.0,34,0.00,,,0.00,WeatherTracker,2013-02-17 17:17:00,
2013-02-17 11:22:00,46.1,17.2,30.36,WSW,242,2.0,7.0,31,0.00,,,0.00,WeatherTracker,2013-02-17 17:22:00,
2013-02-17 11:27:00,46.1,17.9,30.36,WSW,245,2.0,5.0,32,0.00,,,0.00,WeatherTracker,2013-02-17 17:27:00,
2013-02-17 11:32:00,46.3,18.1,30.36,NW,315,3.0,4.0,32,0.00,,,0.00,WeatherTracker,2013-02-17 17:32:00,
2013-02-17 11:37:00,46.9,18.6,30.36,West,277,1.0,6.0,32,0.00,,,0.00,WeatherTracker,2013-02-17 17:37:00,
2013-02-17 11:42:00,46.7,16.2,30.35,NW,309,0.0,6.0,29,0.00,,,0.00,WeatherTracker,2013-02-17 17:42:00,
2013-02-17 11:47:00,47.1,17.3,30.35,North,5,3.0,5.0,30,0.00,,,0.00,WeatherTracker,2013-02-17 17:47:00,
2013-02-17 11:52:00,47.6,22.0,30.35,NW,325,5.0,7.0,36,0.00,,,0.00,WeatherTracker,2013-02-17 17:52:00,
2013-02-17 11:57:00,48.4,19.9,30.34,NE,38,2.0,7.0,32,0.00,,,0.00,WeatherTracker,2013-02-17 17:57:00,
2013-02-17 12:03:00,48.9,18.8,30.34,West,277,4.0,9.0,30,0.00,,,0.00,WeatherTracker,2013-02-17 18:03:00,
2013-02-17 12:08:00,49.0,18.1,30.34,West,261,1.0,9.0,29,0.00,,,0.00,WeatherTracker,2013-02-17 18:08:00,
2013-02-17 12:13:00,48.8,16.3,30.33,NE,45,3.0,7.0,27,0.00,,,0.00,WeatherTracker,2013-02-17 18:13:00,
2013-02-17 12:18:00,49.0,18.9,30.33,NW,305,0.0,7.0,30,0.00,,,0.00,WeatherTracker,2013-02-17 18:18:00,
2013-02-17 12:23:00,49.5,21.6,30.33,NW,321,6.0,6.0,33,0.00,,,0.00,WeatherTracker,2013-02-17 18:23:00,
2013-02-17 12:28:00,49.9,16.4,30.33,WNW,291,4.0,8.0,26,0.00,,,0.00,WeatherTracker,2013-02-17 18:28:00,
2013-02-17 12:33:00,49.8,18.0,30.32,NNW,333,4.0,8.0,28,0.00,,,0.00,WeatherTracker,2013-02-17 18:33:00,
2013-02-17 12:38:00,49.7,21.1,30.32,North,5,5.0,10.0,32,0.00,,,0.00,WeatherTracker,2013-02-17 18:38:00,
2013-02-17 12:43:00,50.3,20.1,30.32,SW,229,2.0,10.0,30,0.00,,,0.00,WeatherTracker,2013-02-17 18:43:00,
2013-02-17 12:48:00,50.9,19.8,30.32,NW,313,4.0,9.0,29,0.00,,,0.00,WeatherTracker,2013-02-17 18:48:00,
2013-02-17 12:53:00,50.7,18.0,30.31,SSE,155,4.0,9.0,27,0.00,,,0.00,WeatherTracker,2013-02-17 18:53:00,
2013-02-17 12:58:00,51.0,18.2,30.31,North,355,5.0,9.0,27,0.00,,,0.00,WeatherTracker,2013-02-17 18:58:00,
2013-02-17 13:03:00,50.8,19.7,30.31,NNE,14,6.0,9.0,29,0.00,,,0.00,WeatherTracker,2013-02-17 19:03:00,
2013-02-17 13:08:00,51.0,19.9,30.30,WSW,258,2.0,9.0,29,0.00,,,0.00,WeatherTracker,2013-02-17 19:08:00,
2013-02-17 13:13:00,51.2,17.5,30.30,WSW,248,2.0,8.0,26,0.00,,,0.00,WeatherTracker,2013-02-17 19:13:00,
2013-02-17 13:18:00,51.3,17.6,30.29,North,11,6.0,7.0,26,0.00,,,0.00,WeatherTracker,2013-02-17 19:18:00,
2013-02-17 13:24:00,51.4,17.7,30.28,SE,128,4.0,8.0,26,0.00,,,0.00,WeatherTracker,2013-02-17 19:24:00,
2013-02-17 13:29:00,51.7,18.8,30.28,SW,234,3.0,8.0,27,0.00,,,0.00,WeatherTracker,2013-02-17 19:29:00,
2013-02-17 13:34:00,52.1,18.3,30.27,West,275,3.0,6.0,26,0.00,,,0.00,WeatherTracker,2013-02-17 19:34:00,
2013-02-17 13:39:00,52.3,21.0,30.28,SW,233,4.0,5.0,29,0.00,,,0.00,WeatherTracker,2013-02-17 19:39:00,
2013-02-17 13:44:00,52.1,18.3,30.27,South,172,4.0,5.0,26,0.00,,,0.00,WeatherTracker,2013-02-17 19:44:00,
2013-02-17 13:49:00,52.6,19.6,30.28,NW,321,4.0,8.0,27,0.00,,,0.00,WeatherTracker,2013-02-17 19:49:00,
2013-02-17 13:54:00,52.6,18.7,30.28,WNW,294,7.0,8.0,26,0.00,,,0.00,WeatherTracker,2013-02-17 19:54:00,
2013-02-17 13:59:00,52.6,18.7,30.28,NNW,329,5.0,8.0,26,0.00,,,0.00,WeatherTracker,2013-02-17 19:59:00,
2013-02-17 14:04:00,52.9,20.7,30.28,WSW,250,1.0,8.0,28,0.00,,,0.00,WeatherTracker,2013-02-17 20:04:00,
2013-02-17 14:09:00,53.5,20.4,30.28,WSW,248,3.0,6.0,27,0.00,,,0.00,WeatherTracker,2013-02-17 20:09:00,
2013-02-17 14:14:00,53.8,20.6,30.28,NNE,24,2.0,8.0,27,0.00,,,0.00,WeatherTracker,2013-02-17 20:14:00,
2013-02-17 14:19:00,53.7,22.2,30.28,NW,309,4.0,10.0,29,0.00,,,0.00,WeatherTracker,2013-02-17 20:19:00,
2013-02-17 14:24:00,53.5,19.5,30.28,NW,307,6.0,10.0,26,0.00,,,0.00,WeatherTracker,2013-02-17 20:24:00,
2013-02-17 14:29:00,53.3,19.3,30.28,West,267,2.0,10.0,26,0.00,,,0.00,WeatherTracker,2013-02-17 20:29:00,
2013-02-17 14:34:00,53.3,20.2,30.28,NW,310,5.0,10.0,27,0.00,,,0.00,WeatherTracker,2013-02-17 20:34:00,
2013-02-17 14:39:00,53.6,22.1,30.28,NW,305,5.0,10.0,29,0.00,,,0.00,WeatherTracker,2013-02-17 20:39:00,
2013-02-17 14:44:00,53.7,20.5,30.27,West,260,2.0,9.0,27,0.00,,,0.00,WeatherTracker,2013-02-17 20:44:00,
2013-02-17 14:49:00,53.6,21.3,30.27,NW,313,3.0,9.0,28,0.00,,,0.00,WeatherTracker,2013-02-17 20:49:00,
2013-02-17 14:54:00,53.9,20.7,30.27,WNW,292,3.0,8.0,27,0.00,,,0.00,WeatherTracker,2013-02-17 20:54:00,
2013-02-17 14:59:00,54.0,21.6,30.27,North,355,6.0,8.0,28,0.00,,,0.00,WeatherTracker,2013-02-17 20:59:00,
2013-02-17 15:04:00,53.8,22.3,30.27,North,360,3.0,10.0,29,0.00,,,0.00,WeatherTracker,2013-02-17 21:04:00,
2013-02-17 15:09:00,53.7,20.5,30.27,WSW,256,2.0,10.0,27,0.00,,,0.00,WeatherTracker,2013-02-17 21:09:00,
2013-02-17 15:14:00,53.8,23.1,30.27,WNW,301,6.0,8.0,30,0.00,,,0.00,WeatherTracker,2013-02-17 21:14:00,
2013-02-17 15:19:00,54.0,21.6,30.27,WNW,285,4.0,8.0,28,0.00,,,0.00,WeatherTracker,2013-02-17 21:19:00,
2013-02-17 15:24:00,53.9,21.6,30.27,NNW,348,3.0,9.0,28,0.00,,,0.00,WeatherTracker,2013-02-17 21:24:00,
2013-02-17 15:29:00,53.8,21.5,30.27,WNW,300,5.0,9.0,28,0.00,,,0.00,WeatherTracker,2013-02-17 21:29:00,
2013-02-17 15:34:00,53.7,22.2,30.27,SW,236,3.0,9.0,29,0.00,,,0.00,WeatherTracker,2013-02-17 21:34:00,
2013-02-17 15:39:00,53.7,21.4,30.27,NW,304,2.0,9.0,28,0.00,,,0.00,WeatherTracker,2013-02-17 21:39:00,
2013-02-17 15:44:00,53.8,23.1,30.27,NNW,329,8.0,8.0,30,0.00,,,0.00,WeatherTracker,2013-02-17 21:44:00,
2013-02-17 15:49:00,53.7,22.2,30.27,NNW,336,6.0,9.0,29,0.00,,,0.00,WeatherTracker,2013-02-17 21:49:00,
2013-02-17 15:54:00,53.4,22.0,30.27,NW,321,4.0,10.0,29,0.00,,,0.00,WeatherTracker,2013-02-17 21:54:00,
2013-02-17 15:59:00,53.4,22.0,30.27,West,275,1.0,10.0,29,0.00,,,0.00,WeatherTracker,2013-02-17 21:59:00,
2013-02-17 16:04:00,53.5,21.2,30.27,NNW,336,0.0,6.0,28,0.00,,,0.00,WeatherTracker,2013-02-17 22:04:00,
2013-02-17 16:09:00,53.4,22.0,30.27,NNW,329,6.0,9.0,29,0.00,,,0.00,WeatherTracker,2013-02-17 22:09:00,
2013-02-17 16:15:00,53.1,22.5,30.27,NNE,26,4.0,9.0,30,0.00,,,0.00,WeatherTracker,2013-02-17 22:15:00,
2013-02-17 16:20:00,52.8,21.4,30.27,North,5,6.0,9.0,29,0.00,,,0.00,WeatherTracker,2013-02-17 22:20:00,
2013-02-17 16:25:00,52.6,21.3,30.27,NNW,336,1.0,8.0,29,0.00,,,0.00,WeatherTracker,2013-02-17 22:25:00,
2013-02-17 16:30:00,52.6,22.1,30.27,NNW,327,3.0,8.0,30,0.00,,,0.00,WeatherTracker,2013-02-17 22:30:00,
2013-02-17 16:35:00,52.6,22.8,30.27,North,360,5.0,5.0,31,0.00,,,0.00,WeatherTracker,2013-02-17 22:35:00,
2013-02-17 16:40:00,52.6,24.3,30.27,North,360,2.0,5.0,33,0.00,,,0.00,WeatherTracker,2013-02-17 22:40:00,
2013-02-17 16:45:00,52.4,23.4,30.27,North,360,1.0,5.0,32,0.00,,,0.00,WeatherTracker,2013-02-17 22:45:00,
2013-02-17 16:50:00,52.3,21.8,30.27,North,360,0.0,4.0,30,0.00,,,0.00,WeatherTracker,2013-02-17 22:50:00,
2013-02-17 16:55:00,52.2,22.5,30.27,North,360,0.0,2.0,31,0.00,,,0.00,WeatherTracker,2013-02-17 22:55:00,
2013-02-17 17:00:00,52.2,25.4,30.27,North,360,1.0,1.0,35,0.00,,,0.00,WeatherTracker,2013-02-17 23:00:00,
2013-02-17 17:05:00,52.2,23.2,30.27,North,360,0.0,2.0,32,0.00,,,0.00,WeatherTracker,2013-02-17 23:05:00,
2013-02-17 17:10:00,52.3,28.7,30.27,North,360,0.0,2.0,40,0.00,,,0.00,WeatherTracker,2013-02-17 23:10:00,
2013-02-17 17:15:00,52.1,27.9,30.27,North,360,0.0,1.0,39,0.00,,,0.00,WeatherTracker,2013-02-17 23:15:00,
2013-02-17 17:20:00,51.8,28.3,30.27,North,360,0.0,0.0,40,0.00,,,0.00,WeatherTracker,2013-02-17 23:20:00,
2013-02-17 17:25:00,51.5,28.0,30.27,North,360,0.0,0.0,40,0.00,,,0.00,WeatherTracker,2013-02-17 23:25:00,
2013-02-17 17:30:00,51.1,28.8,30.27,North,360,0.0,0.0,42,0.00,,,0.00,WeatherTracker,2013-02-17 23:30:00,
2013-02-17 17:35:00,50.6,28.4,30.27,North,360,0.0,0.0,42,0.00,,,0.00,WeatherTracker,2013-02-17 23:35:00,
2013-02-17 17:41:00,50.0,28.4,30.27,North,360,0.0,0.0,43,0.00,,,0.00,WeatherTracker,2013-02-17 23:41:00,
2013-02-17 17:46:00,49.2,28.8,30.27,North,360,0.0,0.0,45,0.00,,,0.00,WeatherTracker,2013-02-17 23:46:00,
2013-02-17 17:51:00,48.5,27.0,30.27,North,360,0.0,0.0,43,0.00,,,0.00,WeatherTracker,2013-02-17 23:51:00,
2013-02-17 17:56:00,47.8,27.5,30.27,North,360,0.0,0.0,45,0.00,,,0.00,WeatherTracker,2013-02-17 23:56:00,
2013-02-17 18:01:00,47.3,27.0,30.27,North,360,0.0,0.0,45,0.00,,,0.00,WeatherTracker,2013-02-18 00:01:00,
2013-02-17 18:06:00,46.6,28.0,30.28,North,360,0.0,0.0,48,0.00,,,0.00,WeatherTracker,2013-02-18 00:06:00,
2013-02-17 18:11:00,46.0,27.9,30.28,North,360,0.0,0.0,49,0.00,,,0.00,WeatherTracker,2013-02-18 00:11:00,
2013-02-17 18:16:00,45.5,27.5,30.28,North,360,0.0,0.0,49,0.00,,,0.00,WeatherTracker,2013-02-18 00:16:00,
2013-02-17 18:21:00,45.0,28.4,30.28,North,360,0.0,0.0,52,0.00,,,0.00,WeatherTracker,2013-02-18 00:21:00,
2013-02-17 18:26:00,44.5,27.5,30.28,North,360,0.0,0.0,51,0.00,,,0.00,WeatherTracker,2013-02-18 00:26:00,
2013-02-17 18:31:00,44.0,27.5,30.28,North,360,0.0,0.0,52,0.00,,,0.00,WeatherTracker,2013-02-18 00:31:00,
2013-02-17 18:36:00,43.5,26.6,30.28,North,360,0.0,0.0,51,0.00,,,0.00,WeatherTracker,2013-02-18 00:36:00,
2013-02-17 18:41:00,43.1,26.2,30.28,North,360,0.0,0.0,51,0.00,,,0.00,WeatherTracker,2013-02-18 00:41:00,
2013-02-17 18:46:00,42.6,25.3,30.28,North,360,0.0,0.0,50,0.00,,,0.00,WeatherTracker,2013-02-18 00:46:00,
2013-02-17 18:51:00,42.2,25.4,30.29,North,360,0.0,0.0,51,0.00,,,0.00,WeatherTracker,2013-02-18 00:51:00,
2013-02-17 18:56:00,41.8,26.4,30.29,North,360,0.0,0.0,54,0.00,,,0.00,WeatherTracker,2013-02-18 00:56:00,
2013-02-17 19:01:00,41.5,27.4,30.29,North,360,0.0,0.0,57,0.00,,,0.00,WeatherTracker,2013-02-18 01:01:00,
2013-02-17 19:06:00,41.1,27.9,30.29,North,360,0.0,0.0,59,0.00,,,0.00,WeatherTracker,2013-02-18 01:06:00,
2013-02-17 19:11:00,40.7,27.9,30.29,North,360,0.0,0.0,60,0.00,,,0.00,WeatherTracker,2013-02-18 01:11:00,
2013-02-17 19:16:00,40.4,28.0,30.29,North,360,0.0,0.0,61,0.00,,,0.00,WeatherTracker,2013-02-18 01:16:00,
2013-02-17 19:22:00,40.0,27.7,30.29,North,360,0.0,0.0,61,0.00,,,0.00,WeatherTracker,2013-02-18 01:22:00,
2013-02-17 19:27:00,39.7,27.8,30.29,North,360,0.0,0.0,62,0.00,,,0.00,WeatherTracker,2013-02-18 01:27:00,
2013-02-17 19:32:00,39.4,27.1,30.30,North,360,0.0,0.0,61,0.00,,,0.00,WeatherTracker,2013-02-18 01:32:00,
2013-02-17 19:37:00,39.1,28.0,30.30,North,360,0.0,0.0,64,0.00,,,0.00,WeatherTracker,2013-02-18 01:37:00,
2013-02-17 19:42:00,38.9,27.0,30.30,North,360,0.0,2.0,62,0.00,,,0.00,WeatherTracker,2013-02-18 01:42:00,
2013-02-17 19:47:00,38.8,28.4,30.30,North,360,0.0,2.0,66,0.00,,,0.00,WeatherTracker,2013-02-18 01:47:00,
2013-02-17 19:52:00,38.7,29.1,30.30,North,360,0.0,0.0,68,0.00,,,0.00,WeatherTracker,2013-02-18 01:52:00,
2013-02-17 19:57:00,38.5,28.9,30.30,North,360,1.0,2.0,68,0.00,,,0.00,WeatherTracker,2013-02-18 01:57:00,
2013-02-17 20:02:00,38.3,29.0,30.30,North,360,0.0,3.0,69,0.00,,,0.00,WeatherTracker,2013-02-18 02:02:00,
2013-02-17 20:07:00,38.2,30.0,30.30,North,360,0.0,3.0,72,0.00,,,0.00,WeatherTracker,2013-02-18 02:07:00,
2013-02-17 20:12:00,38.0,29.4,30.30,North,360,0.0,0.0,71,0.00,,,0.00,WeatherTracker,2013-02-18 02:12:00,
2013-02-17 20:17:00,37.8,28.2,30.30,North,360,0.0,0.0,68,0.00,,,0.00,WeatherTracker,2013-02-18 02:17:00,
2013-02-17 20:22:00,37.8,29.3,30.30,North,360,0.0,0.0,71,0.00,,,0.00,WeatherTracker,2013-02-18 02:22:00,
2013-02-17 20:27:00,37.6,28.4,30.30,North,360,0.0,0.0,69,0.00,,,0.00,WeatherTracker,2013-02-18 02:27:00,
2013-02-17 20:33:00,37.5,27.6,30.30,North,360,2.0,3.0,67,0.00,,,0.00,WeatherTracker,2013-02-18 02:33:00,
2013-02-17 20:38:00,37.5,27.2,30.31,SSE,155,1.0,4.0,66,0.00,,,0.00,WeatherTracker,2013-02-18 02:38:00,
2013-02-17 20:43:00,37.8,26.4,30.31,South,187,3.0,5.0,63,0.00,,,0.00,WeatherTracker,2013-02-18 02:43:00,
2013-02-17 20:48:00,38.6,25.9,30.31,South,177,5.0,7.0,60,0.00,,,0.00,WeatherTracker,2013-02-18 02:48:00,
2013-02-17 20:53:00,39.3,26.6,30.31,South,190,3.0,7.0,60,0.00,,,0.00,WeatherTracker,2013-02-18 02:53:00,
2013-02-17 20:58:00,39.8,26.7,30.31,SSW,202,3.0,7.0,59,0.00,,,0.00,WeatherTracker,2013-02-18 02:58:00,
2013-02-17 21:03:00,40.1,26.9,30.31,South,180,3.0,6.0,59,0.00,,,0.00,WeatherTracker,2013-02-18 03:03:00,
2013-02-17 21:08:00,40.3,27.1,30.32,South,175,4.0,4.0,59,0.00,,,0.00,WeatherTracker,2013-02-18 03:08:00,
2013-02-17 21:13:00,40.4,27.2,30.32,South,178,1.0,4.0,59,0.00,,,0.00,WeatherTracker,2013-02-18 03:13:00,
2013-02-17 21:18:00,40.5,27.7,30.32,SSW,209,2.0,6.0,60,0.00,,,0.00,WeatherTracker,2013-02-18 03:18:00,
2013-02-17 21:23:00,40.6,27.8,30.32,SSW,207,1.0,6.0,60,0.00,,,0.00,WeatherTracker,2013-02-18 03:23:00,
2013-02-17 21:28:00,40.6,28.2,30.32,SSW,204,1.0,5.0,61,0.00,,,0.00,WeatherTracker,2013-02-18 03:28:00,
2013-02-17 21:33:00,40.6,28.2,30.32,SSW,205,2.0,5.0,61,0.00,,,0.00,WeatherTracker,2013-02-18 03:33:00,
2013-02-17 21:38:00,40.5,28.5,30.32,SSW,205,0.0,5.0,62,0.00,,,0.00,WeatherTracker,2013-02-18 03:38:00,
2013-02-17 21:44:00,40.4,28.4,30.32,SSW,203,2.0,5.0,62,0.00,,,0.00,WeatherTracker,2013-02-18 03:44:00,
2013-02-17 21:49:00,40.4,28.4,30.32,South,184,0.0,5.0,62,0.00,,,0.00,WeatherTracker,2013-02-18 03:49:00,
2013-02-17 21:54:00,40.2,28.6,30.32,SSW,213,0.0,4.0,63,0.00,,,0.00,WeatherTracker,2013-02-18 03:54:00,
2013-02-17 21:59:00,40.1,28.5,30.32,South,190,0.0,4.0,63,0.00,,,0.00,WeatherTracker,2013-02-18 03:59:00,
2013-02-17 22:04:00,40.0,28.8,30.32,SSW,209,4.0,4.0,64,0.00,,,0.00,WeatherTracker,2013-02-18 04:04:00,
2013-02-17 22:09:00,39.9,28.7,30.32,South,184,3.0,5.0,64,0.00,,,0.00,WeatherTracker,2013-02-18 04:09:00,
2013-02-17 22:14:00,39.8,28.6,30.32,South,183,2.0,5.0,64,0.00,,,0.00,WeatherTracker,2013-02-18 04:14:00,
2013-02-17 22:19:00,39.8,28.6,30.32,South,183,3.0,5.0,64,0.00,,,0.00,WeatherTracker,2013-02-18 04:19:00,
2013-02-17 22:24:00,39.6,28.8,30.32,South,183,0.0,4.0,65,0.00,,,0.00,WeatherTracker,2013-02-18 04:24:00,
2013-02-17 22:29:00,39.4,28.6,30.32,South,183,0.0,4.0,65,0.00,,,0.00,WeatherTracker,2013-02-18 04:29:00,
2013-02-17 22:34:00,39.1,28.7,30.32,South,183,1.0,3.0,66,0.00,,,0.00,WeatherTracker,2013-02-18 04:34:00,
2013-02-17 22:39:00,38.9,28.9,30.32,South,183,0.0,4.0,67,0.00,,,0.00,WeatherTracker,2013-02-18 04:39:00,
2013-02-17 22:44:00,38.8,28.8,30.32,South,183,1.0,4.0,67,0.00,,,0.00,WeatherTracker,2013-02-18 04:44:00,
2013-02-17 22:49:00,38.6,29.0,30.32,SSE,162,4.0,4.0,68,0.00,,,0.00,WeatherTracker,2013-02-18 04:49:00,
2013-02-17 22:54:00,38.4,28.8,30.32,SSE,167,4.0,4.0,68,0.00,,,0.00,WeatherTracker,2013-02-18 04:54:00,
2013-02-17 22:59:00,38.3,29.0,30.32,SSE,168,1.0,4.0,69,0.00,,,0.00,WeatherTracker,2013-02-18 04:59:00,
2013-02-17 23:00:00,38.3,29.0,30.32,SSE,168,1.0,4.0,69,0.00,,,0.00,WeatherTracker,2013-02-18 05:00:00,
2013-02-17 23:01:00,38.3,29.0,30.32,South,176,2.0,5.0,69,0.00,,,0.00,WeatherTracker,2013-02-18 05:01:00,
2013-02-17 23:06:00,38.2,28.9,30.32,South,179,2.0,5.0,69,0.00,,,0.00,WeatherTracker,2013-02-18 05:06:00,
2013-02-17 23:11:00,38.1,28.8,30.32,South,179,4.0,5.0,69,0.00,,,0.00,WeatherTracker,2013-02-18 05:11:00,
2013-02-17 23:16:00,38.0,29.1,30.32,South,179,0.0,4.0,70,0.00,,,0.00,WeatherTracker,2013-02-18 05:16:00,
2013-02-17 23:21:00,38.0,29.1,30.32,South,177,4.0,4.0,70,0.00,,,0.00,WeatherTracker,2013-02-18 05:21:00,
2013-02-17 23:26:00,38.0,29.1,30.32,South,186,2.0,5.0,70,0.00,,,0.00,WeatherTracker,2013-02-18 05:26:00,
2013-02-17 23:31:00,38.0,29.1,30.32,South,176,2.0,6.0,70,0.00,,,0.00,WeatherTracker,2013-02-18 05:31:00,
2013-02-17 23:37:00,37.9,29.0,30.32,SSE,147,2.0,6.0,70,0.00,,,0.00,WeatherTracker,2013-02-18 05:37:00,
2013-02-17 23:42:00,37.9,29.0,30.32,SSE,155,1.0,5.0,70,0.00,,,0.00,WeatherTracker,2013-02-18 05:42:00,
2013-02-17 23:47:00,37.9,29.0,30.32,South,178,2.0,5.0,70,0.00,,,0.00,WeatherTracker,2013-02-18 05:47:00,
2013-02-17 23:52:00,37.8,28.9,30.32,South,184,0.0,5.0,70,0.00,,,0.00,WeatherTracker,2013-02-18 05:52:00,
2013-02-17 23:57:00,37.7,29.2,30.32,SSW,192,2.0,4.0,71,0.00,,,0.00,WeatherTracker,2013-02-18 05:57:00,